EW8080 Weather Reports


Display with metric or nautical units.
time (UTC)temp
F
wind
direction
speed
MPH
gust
MPH
rain 1hr
in
rain 24hr
in
rain mn
in
humidity
%
barometer
mb
20260507010004 56 226 10.0 23.0 0.01 0.07 0.07 97 1008.4
20260507005024 56 227 9.0 26.0 0.01 0.07 0.07 97 1008.4
20260507004003 56 231 11.0 26.0 0.02 0.07 0.07 97 1008.6
20260507003003 56 245 12.0 25.0 0.02 0.07 0.07 97 1008.4
20260507002003 56 231 9.0 19.0 0.02 0.07 0.07 97 1008.4
20260507001003 56 222 13.0 22.0 0.02 0.07 0.07 97 1008.5
20260507000003 56 231 14.0 25.0 0.03 0.07 0.07 97 1008.3
20260506235003 56 206 9.0 25.0 0.03 0.06 0.06 96 1008.4
20260506234003 56 207 12.0 21.0 0.04 0.06 0.06 96 1008.5
20260506233003 56 208 10.0 20.0 0.04 0.05 0.05 96 1008.3
20260506232003 56 218 11.0 26.0 0.04 0.05 0.05 96 1008.1
20260506231003 56 226 11.0 26.0 0.03 0.05 0.05 96 1008.1
20260506230003 56 198 13.0 27.0 0.03 0.04 0.04 95 1008.6
20260506225003 57 222 14.0 27.0 0.02 0.03 0.03 94 1008.6
20260506224003 57 224 11.0 24.0 0.02 0.02 0.02 93 1008.5
20260506223003 57 222 11.0 24.0 0.01 0.02 0.02 93 1008.6
20260506222003 57 227 12.0 25.0 0.01 0.02 0.02 91 1008.8
20260506221003 58 219 14.0 25.0 0.00 0.01 0.01 90 1008.9
20260506220003 59 226 11.0 21.0 0.00 0.01 0.01 88 1008.8
20260506215003 59 212 12.0 24.0 0.00 0.01 0.01 86 1008.9
20260506214024 59 219 12.0 24.0 0.01 0.01 0.01 85 1009.0
20260506213003 60 197 11.0 20.0 0.01 0.01 0.01 86 1009.1
20260506212003 60 215 10.0 20.0 0.01 0.01 0.01 85 1009.1
20260506211003 60 211 15.0 20.0 0.01 0.01 0.01 85 1009.2
20260506210003 60 201 14.0 21.0 0.00 0.00 0.00 83 1009.4
20260506205024 60 232 10.0 21.0 0.00 0.00 0.00 83 1009.3
20260506204003 61 243 11.0 26.0 0.00 0.00 0.00 82 1009.3
20260506203003 61 205 8.0 26.0 0.00 0.00 0.00 83 1009.5
20260506202003 61 226 12.0 21.0 0.00 0.00 0.00 81 1009.5
20260506201024 61 209 11.0 21.0 0.00 0.00 0.00 79 1009.4
20260506200003 61 215 9.0 20.0 0.00 0.00 0.00 80 1009.9
20260506195003 62 232 9.0 20.0 0.00 0.00 0.00 78 1009.9
20260506194003 62 235 10.0 20.0 0.00 0.00 0.00 77 1010.1
20260506193003 62 224 10.0 19.0 0.00 0.00 0.00 77 1010.2
20260506192003 62 205 9.0 19.0 0.00 0.00 0.00 78 1010.2
20260506191003 63 212 11.0 23.0 0.00 0.00 0.00 76 1010.2
20260506190024 63 228 9.0 28.0 0.00 0.00 0.00 76 1010.3
20260506185024 64 219 14.0 28.0 0.00 0.00 0.00 75 1010.2
20260506184003 64 219 11.0 27.0 0.00 0.00 0.00 75 1010.5
20260506183003 64 214 11.0 27.0 0.00 0.00 0.00 74 1010.6
20260506182003 64 222 8.0 27.0 0.00 0.00 0.00 75 1010.6
20260506181003 64 221 14.0 25.0 0.00 0.00 0.00 74 1011.0
20260506180004 65 225 14.0 34.0 0.00 0.00 0.00 73 1011.1
20260506175003 66 229 14.0 34.0 0.00 0.00 0.00 72 1011.3
20260506174003 67 233 14.0 27.0 0.00 0.00 0.00 71 1011.3
20260506173004 66 213 14.0 27.0 0.00 0.00 0.00 71 1011.5
20260506172003 67 219 13.0 19.0 0.00 0.00 0.00 72 1011.5
20260506171003 67 229 12.0 26.0 0.00 0.00 0.00 74 1011.5
20260506170003 65 235 10.0 28.0 0.00 0.00 0.00 74 1011.9
20260506165003 64 220 11.0 28.0 0.00 0.00 0.00 75 1012.0
20260506164003 65 217 13.0 26.0 0.00 0.00 0.00 74 1012.0
20260506163003 66 216 14.0 26.0 0.00 0.00 0.00 71 1012.1
20260506162003 67 233 13.0 25.0 0.00 0.00 0.00 71 1012.4
20260506161002 68 220 12.0 25.0 0.00 0.00 0.00 69 1012.4
20260506160003 67 214 12.0 30.0 0.00 0.00 0.00 70 1012.4
20260506155003 67 211 11.0 30.0 0.00 0.00 0.00 71 1012.6
20260506154002 66 230 11.0 28.0 0.00 0.00 0.00 71 1012.6
20260506153002 67 201 15.0 30.0 0.00 0.00 0.00 72 1012.8
20260506152003 67 214 16.0 31.0 0.00 0.00 0.00 71 1012.9
20260506151003 68 229 16.0 31.0 0.00 0.00 0.00 70 1012.8
20260506150003 68 210 15.0 31.0 0.00 0.00 0.00 70 1012.7
20260506145003 66 219 12.0 27.0 0.00 0.00 0.00 73 1012.8
20260506144024 66 223 14.0 31.0 0.00 0.00 0.00 70 1012.6
20260506143003 66 215 12.0 31.0 0.00 0.00 0.00 72 1012.7
20260506142003 66 224 12.0 26.0 0.00 0.00 0.00 71 1012.6
20260506141003 68 222 14.0 26.0 0.00 0.00 0.00 69 1012.9
20260506140003 68 233 17.0 26.0 0.00 0.00 0.00 70 1012.7
20260506135024 68 230 12.0 25.0 0.00 0.00 0.00 69 1013.0
20260506134003 68 241 13.0 24.0 0.00 0.00 0.00 70 1012.8
20260506133002 68 235 13.0 24.0 0.00 0.00 0.00 71 1013.0
20260506132003 67 222 9.0 25.0 0.00 0.00 0.00 72 1012.9
20260506131003 67 217 13.0 25.0 0.00 0.00 0.00 72 1012.7
20260506130004 66 230 12.0 28.0 0.00 0.00 0.00 74 1012.6
20260506125003 66 221 9.0 35.0 0.00 0.00 0.00 75 1012.6
20260506124003 64 217 10.0 35.0 0.00 0.00 0.00 76 1012.9
20260506123003 63 225 13.0 34.0 0.00 0.00 0.00 77 1012.9
20260506122003 63 224 14.0 26.0 0.00 0.00 0.00 79 1012.8
20260506121002 62 206 13.0 24.0 0.00 0.00 0.00 81 1013.0
20260506120003 60 219 13.0 24.0 0.00 0.00 0.00 85 1013.0
20260506115003 58 220 11.0 20.0 0.00 0.00 0.00 88 1013.2
20260506114003 57 214 11.0 21.0 0.00 0.00 0.00 88 1013.2
20260506113003 58 228 11.0 21.0 0.00 0.00 0.00 88 1013.3
20260506112003 58 220 12.0 20.0 0.00 0.00 0.00 89 1013.1
20260506111003 57 215 11.0 21.0 0.00 0.00 0.00 90 1013.1
20260506110003 56 214 10.0 21.0 0.00 0.00 0.00 91 1013.0
20260506105003 56 223 9.0 20.0 0.00 0.00 0.00 92 1013.1
20260506104003 56 227 9.0 20.0 0.00 0.00 0.00 92 1013.2
20260506103004 55 217 9.0 18.0 0.00 0.00 0.00 92 1013.1
20260506102003 55 212 10.0 18.0 0.00 0.00 0.00 93 1012.8
20260506101003 55 215 11.0 18.0 0.00 0.00 0.00 93 1012.9
20260506100003 55 214 8.0 18.0 0.00 0.00 0.00 93 1012.8
20260506095003 55 221 10.0 19.0 0.00 0.00 0.00 93 1012.9
20260506094004 55 217 9.0 20.0 0.00 0.00 0.00 93 1013.2
20260506093003 55 216 14.0 20.0 0.00 0.00 0.00 93 1013.1
20260506092003 55 218 10.0 25.0 0.00 0.00 0.00 92 1013.3
20260506091003 56 218 11.0 27.0 0.00 0.00 0.00 92 1013.3
20260506090003 56 213 9.0 27.0 0.00 0.00 0.00 93 1013.3
20260506085003 56 224 10.0 22.0 0.00 0.00 0.00 92 1013.1
20260506084003 56 211 12.0 24.0 0.00 0.00 0.00 93 1013.1
20260506083003 56 227 10.0 24.0 0.00 0.00 0.00 93 1013.2
20260506082003 56 206 16.0 24.0 0.00 0.00 0.00 94 1013.3
20260506081003 56 220 14.0 24.0 0.00 0.00 0.00 94 1013.5
20260506073004 55 230 8.0 22.0 0.00 0.00 0.00 93 1013.1
20260506072003 55 216 12.0 22.0 0.00 0.00 0.00 92 1013.3
20260506071003 55 220 15.0 23.0 0.00 0.00 0.00 92 1013.0
20260506062002 55 217 14.0 24.0 0.00 0.00 0.00 90 1013.1
20260506061024 55 210 13.0 24.0 0.00 0.00 0.00 90 1013.1
20260506051003 56 221 11.0 20.0 0.00 0.00 0.00 89 1013.5
20260506045003 55 215 11.0 21.0 0.00 0.00 0.00 90 1013.7
20260506044002 55 218 10.0 19.0 0.00 0.00 0.00 89 1013.5
20260506043003 55 220 10.0 19.0 0.00 0.00 0.00 90 1013.7
20260506042004 55 239 9.0 22.0 0.00 0.00 0.00 89 1013.6
20260506041003 55 218 11.0 22.0 0.00 0.00 0.00 89 1013.7
20260506040004 55 203 14.0 19.0 0.00 0.00 0.00 89 1013.6
20260506035003 55 226 10.0 24.0 0.00 0.00 0.00 87 1013.7
20260506034003 55 233 12.0 24.0 0.00 0.00 0.00 87 1013.7
20260506033003 55 223 10.0 26.0 0.00 0.00 0.00 86 1013.6
20260506032003 55 233 8.0 26.0 0.00 0.00 0.00 87 1013.5
20260506031003 55 229 13.0 23.0 0.00 0.00 0.00 87 1013.3
20260506030003 55 225 14.0 21.0 0.00 0.00 0.00 86 1013.3
20260506025003 55 214 12.0 23.0 0.00 0.00 0.00 85 1013.2
20260506024003 55 225 12.0 23.0 0.00 0.00 0.00 84 1013.5
20260506023003 55 218 14.0 21.0 0.00 0.00 0.00 83 1013.3
20260506022003 55 220 9.0 21.0 0.00 0.00 0.00 82 1013.5
20260506021003 55 221 14.0 21.0 0.00 0.00 0.00 82 1013.4
20260506020003 55 220 10.0 20.0 0.00 0.00 0.00 81 1013.5
20260506015003 55 209 11.0 18.0 0.00 0.00 0.00 80 1013.4
20260506014003 55 221 12.0 17.0 0.00 0.00 0.00 79 1013.3
20260506013003 55 217 13.0 17.0 0.00 0.00 0.00 79 1013.4
20260506012003 55 217 9.0 15.0 0.00 0.00 0.00 79 1013.5
20260506011003 55 217 10.0 24.0 0.00 0.00 0.00 79 1013.1